Time,TemperatureF,DewpointF,PressureIn,WindDirection,WindDirectionDegrees,WindSpeedMPH,WindSpeedGustMPH,Humidity,HourlyPrecipIn,Conditions,Clouds,dailyrainin,SoftwareType,DateUTC
2013-06-15 00:01:00,59.5,55.0,29.70,SSW,210,0.0,0.0,85,0.00,,,0.00,WeatherCatV1.15B25,2013-06-15 04:01:00,
2013-06-15 00:06:00,59.7,54.9,29.70,South,182,0.0,0.0,84,0.00,,,0.00,WeatherCatV1.15B25,2013-06-15 04:06:00,
2013-06-15 00:11:00,60.0,54.8,29.70,South,182,0.0,0.0,83,0.00,,,0.00,WeatherCatV1.15B25,2013-06-15 04:11:00,
2013-06-15 00:16:00,60.1,54.9,29.70,South,182,0.0,0.0,83,0.00,,,0.00,WeatherCatV1.15B25,2013-06-15 04:16:00,
2013-06-15 00:21:00,60.2,55.0,29.70,South,182,0.0,0.0,83,0.00,,,0.00,WeatherCatV1.15B25,2013-06-15 04:21:00,
2013-06-15 00:26:00,60.2,54.7,29.71,South,182,0.0,0.0,82,0.00,,,0.00,WeatherCatV1.15B25,2013-06-15 04:26:00,
2013-06-15 00:31:00,60.2,55.0,29.71,South,178,0.0,0.0,83,0.00,,,0.00,WeatherCatV1.15B25,2013-06-15 04:31:00,
2013-06-15 00:36:00,60.1,54.6,29.72,South,178,0.0,0.0,82,0.00,,,0.00,WeatherCatV1.15B25,2013-06-15 04:36:00,
2013-06-15 00:41:00,60.2,54.0,29.72,South,178,0.0,0.0,80,0.00,,,0.00,WeatherCatV1.15B25,2013-06-15 04:41:00,
2013-06-15 00:46:00,60.5,54.6,29.72,South,178,0.0,0.0,81,0.00,,,0.00,WeatherCatV1.15B25,2013-06-15 04:46:00,
2013-06-15 00:51:00,60.4,54.9,29.72,South,178,0.0,0.0,82,0.00,,,0.00,WeatherCatV1.15B25,2013-06-15 04:51:00,
2013-06-15 00:56:00,60.2,55.0,29.72,South,178,0.0,0.0,83,0.00,,,0.00,WeatherCatV1.15B25,2013-06-15 04:56:00,
2013-06-15 01:01:00,60.0,54.5,29.73,South,178,0.0,0.0,82,0.00,,,0.00,WeatherCatV1.15B25,2013-06-15 05:01:00,
2013-06-15 01:06:00,59.7,54.5,29.73,WSW,242,0.0,0.0,83,0.00,,,0.00,WeatherCatV1.15B25,2013-06-15 05:06:00,
2013-06-15 01:11:00,59.6,54.8,29.73,WSW,242,0.0,0.0,84,0.00,,,0.00,WeatherCatV1.15B25,2013-06-15 05:11:00,
2013-06-15 01:16:00,59.3,54.8,29.73,WSW,242,0.0,0.0,85,0.00,,,0.00,WeatherCatV1.15B25,2013-06-15 05:16:00,
2013-06-15 01:21:00,59.1,54.6,29.73,WSW,242,0.0,0.0,85,0.00,,,0.00,WeatherCatV1.15B25,2013-06-15 05:21:00,
2013-06-15 01:26:00,58.8,54.6,29.73,WSW,242,0.0,0.0,86,0.00,,,0.00,WeatherCatV1.15B25,2013-06-15 05:26:00,
2013-06-15 01:31:00,58.6,54.7,29.73,WSW,242,0.0,0.0,87,0.00,,,0.00,WeatherCatV1.15B25,2013-06-15 05:31:00,
2013-06-15 01:36:00,58.3,54.8,29.73,WSW,242,0.0,0.0,88,0.00,,,0.00,WeatherCatV1.15B25,2013-06-15 05:36:00,
2013-06-15 01:41:00,58.1,54.2,29.73,WSW,242,0.0,0.0,87,0.00,,,0.00,WeatherCatV1.15B25,2013-06-15 05:41:00,
2013-06-15 01:46:00,57.8,54.3,29.73,WSW,242,0.0,0.0,88,0.00,,,0.00,WeatherCatV1.15B25,2013-06-15 05:46:00,
2013-06-15 01:51:00,57.5,54.3,29.73,WSW,242,0.0,0.0,89,0.00,,,0.00,WeatherCatV1.15B25,2013-06-15 05:51:00,
2013-06-15 01:56:00,57.3,54.1,29.73,WSW,242,0.0,0.0,89,0.00,,,0.00,WeatherCatV1.15B25,2013-06-15 05:56:00,
2013-06-15 02:01:00,57.1,53.9,29.73,WSW,242,0.0,0.0,89,0.00,,,0.00,WeatherCatV1.15B25,2013-06-15 06:01:00,
2013-06-15 02:06:00,57.0,54.1,29.73,WSW,242,0.0,0.0,90,0.00,,,0.00,WeatherCatV1.15B25,2013-06-15 06:06:00,
2013-06-15 02:11:00,56.8,53.9,29.73,WSW,242,0.0,0.0,90,0.00,,,0.00,WeatherCatV1.15B25,2013-06-15 06:11:00,
2013-06-15 02:16:00,56.5,53.6,29.73,WSW,242,0.0,0.0,90,0.00,,,0.00,WeatherCatV1.15B25,2013-06-15 06:16:00,
2013-06-15 02:21:00,56.3,53.7,29.73,WSW,242,0.0,0.0,91,0.00,,,0.00,WeatherCatV1.15B25,2013-06-15 06:21:00,
2013-06-15 02:26:00,56.2,53.6,29.73,WSW,242,0.0,0.0,91,0.00,,,0.00,WeatherCatV1.15B25,2013-06-15 06:26:00,
2013-06-15 02:31:00,56.1,53.5,29.73,WSW,242,0.0,0.0,91,0.00,,,0.00,WeatherCatV1.15B25,2013-06-15 06:31:00,
2013-06-15 02:36:00,55.9,53.3,29.73,WSW,242,0.0,0.0,91,0.00,,,0.00,WeatherCatV1.15B25,2013-06-15 06:36:00,
2013-06-15 02:41:00,55.8,53.2,29.74,WSW,242,0.0,0.0,91,0.00,,,0.00,WeatherCatV1.15B25,2013-06-15 06:41:00,
2013-06-15 02:46:00,55.7,53.4,29.74,WSW,242,0.0,0.0,92,0.00,,,0.00,WeatherCatV1.15B25,2013-06-15 06:46:00,
2013-06-15 02:51:00,55.5,53.2,29.74,WSW,242,0.0,0.0,92,0.00,,,0.00,WeatherCatV1.15B25,2013-06-15 06:51:00,
2013-06-15 02:56:00,55.4,53.1,29.74,WSW,242,0.0,0.0,92,0.00,,,0.00,WeatherCatV1.15B25,2013-06-15 06:56:00,
2013-06-15 03:01:00,55.2,52.9,29.74,WSW,242,0.0,0.0,92,0.00,,,0.00,WeatherCatV1.15B25,2013-06-15 07:01:00,
2013-06-15 03:06:00,55.1,52.8,29.74,WSW,242,0.0,0.0,92,0.00,,,0.00,WeatherCatV1.15B25,2013-06-15 07:06:00,
2013-06-15 03:11:00,55.0,52.7,29.74,WSW,242,0.0,0.0,92,0.00,,,0.00,WeatherCatV1.15B25,2013-06-15 07:11:00,
2013-06-15 03:16:00,54.8,52.5,29.74,WSW,242,0.0,0.0,92,0.00,,,0.00,WeatherCatV1.15B25,2013-06-15 07:16:00,
2013-06-15 03:21:00,54.7,52.7,29.75,WSW,242,0.0,0.0,93,0.00,,,0.00,WeatherCatV1.15B25,2013-06-15 07:21:00,
2013-06-15 03:26:00,54.6,52.6,29.75,WSW,242,0.0,0.0,93,0.00,,,0.00,WeatherCatV1.15B25,2013-06-15 07:26:00,
2013-06-15 03:31:00,54.6,52.9,29.75,WSW,242,0.0,0.0,94,0.00,,,0.00,WeatherCatV1.15B25,2013-06-15 07:31:00,
2013-06-15 03:36:00,54.6,52.6,29.75,WSW,242,0.0,0.0,93,0.00,,,0.00,WeatherCatV1.15B25,2013-06-15 07:36:00,
2013-06-15 03:41:00,54.5,52.5,29.75,WSW,242,0.0,0.0,93,0.00,,,0.00,WeatherCatV1.15B25,2013-06-15 07:41:00,
2013-06-15 03:46:00,54.4,52.4,29.75,WSW,242,0.0,0.0,93,0.00,,,0.00,WeatherCatV1.15B25,2013-06-15 07:46:00,
2013-06-15 03:51:00,54.3,52.3,29.75,WSW,242,0.0,0.0,93,0.00,,,0.00,WeatherCatV1.15B25,2013-06-15 07:51:00,
2013-06-15 03:56:00,54.2,52.5,29.75,WSW,242,0.0,0.0,94,0.00,,,0.00,WeatherCatV1.15B25,2013-06-15 07:56:00,
2013-06-15 04:01:00,54.2,52.5,29.75,WSW,242,0.0,0.0,94,0.00,,,0.00,WeatherCatV1.15B25,2013-06-15 08:01:00,
2013-06-15 04:06:00,54.1,52.4,29.76,WSW,242,0.0,0.0,94,0.00,,,0.00,WeatherCatV1.15B25,2013-06-15 08:06:00,
2013-06-15 04:11:00,54.1,52.4,29.76,WSW,242,0.0,0.0,94,0.00,,,0.00,WeatherCatV1.15B25,2013-06-15 08:11:00,
2013-06-15 04:16:00,54.0,52.3,29.76,WSW,242,0.0,0.0,94,0.00,,,0.00,WeatherCatV1.15B25,2013-06-15 08:16:00,
2013-06-15 04:21:00,54.1,52.4,29.76,WSW,242,0.0,0.0,94,0.00,,,0.00,WeatherCatV1.15B25,2013-06-15 08:21:00,
2013-06-15 04:26:00,54.0,52.3,29.76,WSW,242,0.0,0.0,94,0.00,,,0.00,WeatherCatV1.15B25,2013-06-15 08:26:00,
2013-06-15 04:31:00,53.9,52.2,29.76,WSW,242,0.0,0.0,94,0.00,,,0.00,WeatherCatV1.15B25,2013-06-15 08:31:00,
2013-06-15 04:36:00,53.9,52.2,29.76,WSW,242,0.0,0.0,94,0.00,,,0.00,WeatherCatV1.15B25,2013-06-15 08:36:00,
2013-06-15 04:41:00,53.8,52.1,29.77,WSW,242,0.0,0.0,94,0.00,,,0.00,WeatherCatV1.15B25,2013-06-15 08:41:00,
2013-06-15 04:46:00,53.7,52.0,29.77,WSW,242,0.0,0.0,94,0.00,,,0.00,WeatherCatV1.15B25,2013-06-15 08:46:00,
2013-06-15 04:51:00,53.6,51.9,29.77,WSW,242,0.0,0.0,94,0.00,,,0.00,WeatherCatV1.15B25,2013-06-15 08:51:00,
2013-06-15 04:56:00,53.5,51.8,29.77,WSW,242,0.0,0.0,94,0.00,,,0.00,WeatherCatV1.15B25,2013-06-15 08:56:00,
2013-06-15 05:01:00,53.5,51.8,29.77,WSW,242,0.0,0.0,94,0.00,,,0.00,WeatherCatV1.15B25,2013-06-15 09:01:00,
2013-06-15 05:06:00,53.3,51.6,29.78,WSW,242,0.0,0.0,94,0.00,,,0.00,WeatherCatV1.15B25,2013-06-15 09:06:00,
2013-06-15 05:11:00,53.2,51.2,29.78,WSW,242,0.0,0.0,93,0.00,,,0.00,WeatherCatV1.15B25,2013-06-15 09:11:00,
2013-06-15 05:16:00,53.1,51.1,29.78,WSW,242,0.0,0.0,93,0.00,,,0.00,WeatherCatV1.15B25,2013-06-15 09:16:00,
2013-06-15 05:21:00,53.0,51.0,29.78,WSW,242,0.0,0.0,93,0.00,,,0.00,WeatherCatV1.15B25,2013-06-15 09:21:00,
2013-06-15 05:26:00,53.1,51.1,29.79,WSW,242,0.0,0.0,93,0.00,,,0.00,WeatherCatV1.15B25,2013-06-15 09:26:00,
2013-06-15 05:31:00,53.2,51.2,29.79,WSW,242,0.0,0.0,93,0.00,,,0.00,WeatherCatV1.15B25,2013-06-15 09:31:00,
2013-06-15 05:36:00,53.2,50.9,29.79,WSW,242,0.0,0.0,92,0.00,,,0.00,WeatherCatV1.15B25,2013-06-15 09:36:00,
2013-06-15 05:41:00,53.3,51.0,29.79,WSW,242,0.0,0.0,92,0.00,,,0.00,WeatherCatV1.15B25,2013-06-15 09:41:00,
2013-06-15 05:46:00,53.5,50.9,29.80,WSW,242,0.0,0.0,91,0.00,,,0.00,WeatherCatV1.15B25,2013-06-15 09:46:00,
2013-06-15 05:51:00,53.7,50.8,29.80,WSW,242,0.0,0.0,90,0.00,,,0.00,WeatherCatV1.15B25,2013-06-15 09:51:00,
2013-06-15 05:56:00,53.9,51.0,29.80,WSW,242,0.0,0.0,90,0.00,,,0.00,WeatherCatV1.15B25,2013-06-15 09:56:00,
2013-06-15 06:01:00,54.1,50.9,29.81,WSW,242,0.0,0.0,89,0.00,,,0.00,WeatherCatV1.15B25,2013-06-15 10:01:00,
2013-06-15 06:06:00,54.5,51.0,29.81,SW,228,0.0,0.0,88,0.00,,,0.00,WeatherCatV1.15B25,2013-06-15 10:06:00,
2013-06-15 06:11:00,54.9,50.8,29.81,SSE,158,0.0,1.0,86,0.00,,,0.00,WeatherCatV1.15B25,2013-06-15 10:11:00,
2013-06-15 06:16:00,55.3,50.9,29.81,South,190,0.0,1.0,85,0.00,,,0.00,WeatherCatV1.15B25,2013-06-15 10:16:00,
2013-06-15 06:21:00,55.9,50.8,29.81,SW,229,0.0,0.0,83,0.00,,,0.00,WeatherCatV1.15B25,2013-06-15 10:21:00,
2013-06-15 06:26:00,56.5,51.1,29.81,South,188,1.0,1.0,82,0.00,,,0.00,WeatherCatV1.15B25,2013-06-15 10:26:00,
2013-06-15 06:31:00,57.0,50.5,29.81,SW,218,0.0,3.0,79,0.00,,,0.00,WeatherCatV1.15B25,2013-06-15 10:31:00,
2013-06-15 06:36:00,57.4,51.3,29.81,WSW,241,0.0,2.0,80,0.00,,,0.00,WeatherCatV1.15B25,2013-06-15 10:36:00,
2013-06-15 06:41:00,57.7,50.9,29.81,SSW,203,0.0,1.0,78,0.00,,,0.00,WeatherCatV1.15B25,2013-06-15 10:41:00,
2013-06-15 06:46:00,58.0,51.2,29.81,SSW,202,0.0,1.0,78,0.00,,,0.00,WeatherCatV1.15B25,2013-06-15 10:46:00,
2013-06-15 06:51:00,58.3,50.8,29.81,SSW,209,0.0,0.0,76,0.00,,,0.00,WeatherCatV1.15B25,2013-06-15 10:51:00,
2013-06-15 06:56:00,58.6,50.7,29.82,South,188,0.0,0.0,75,0.00,,,0.00,WeatherCatV1.15B25,2013-06-15 10:56:00,
2013-06-15 07:01:00,59.0,51.1,29.82,SSW,194,0.0,0.0,75,0.00,,,0.00,WeatherCatV1.15B25,2013-06-15 11:01:00,
2013-06-15 07:06:00,59.3,50.6,29.82,SSW,192,0.0,3.0,73,0.00,,,0.00,WeatherCatV1.15B25,2013-06-15 11:06:00,
2013-06-15 07:11:00,59.9,51.2,29.82,SSW,192,0.0,0.0,73,0.00,,,0.00,WeatherCatV1.15B25,2013-06-15 11:11:00,
2013-06-15 07:16:00,60.3,50.5,29.82,SSW,212,3.0,3.0,70,0.00,,,0.00,WeatherCatV1.15B25,2013-06-15 11:16:00,
2013-06-15 07:21:00,60.9,51.0,29.82,WSW,248,0.0,4.0,70,0.00,,,0.00,WeatherCatV1.15B25,2013-06-15 11:21:00,
2013-06-15 07:26:00,61.4,50.3,29.82,West,267,0.0,1.0,67,0.00,,,0.00,WeatherCatV1.15B25,2013-06-15 11:26:00,
2013-06-15 07:31:00,61.8,50.7,29.82,WNW,289,0.0,2.0,67,0.00,,,0.00,WeatherCatV1.15B25,2013-06-15 11:31:00,
2013-06-15 07:36:00,62.2,49.9,29.82,South,189,0.0,2.0,64,0.00,,,0.00,WeatherCatV1.15B25,2013-06-15 11:36:00,
2013-06-15 07:41:00,62.7,49.9,29.82,SSW,204,0.0,1.0,63,0.00,,,0.00,WeatherCatV1.15B25,2013-06-15 11:41:00,
2013-06-15 07:46:00,63.0,50.2,29.82,SW,216,0.0,4.0,63,0.00,,,0.00,WeatherCatV1.15B25,2013-06-15 11:46:00,
2013-06-15 07:51:00,63.5,49.8,29.83,West,268,1.0,4.0,61,0.00,,,0.00,WeatherCatV1.15B25,2013-06-15 11:51:00,
2013-06-15 07:56:00,63.8,50.1,29.83,WNW,286,0.0,4.0,61,0.00,,,0.00,WeatherCatV1.15B25,2013-06-15 11:56:00,
2013-06-15 08:01:00,64.0,49.4,29.83,WNW,302,0.0,1.0,59,0.00,,,0.00,WeatherCatV1.15B25,2013-06-15 12:01:00,
2013-06-15 08:06:00,64.4,50.2,29.83,West,259,0.0,1.0,60,0.00,,,0.00,WeatherCatV1.15B25,2013-06-15 12:06:00,
2013-06-15 08:11:00,64.7,50.5,29.83,SSW,196,1.0,1.0,60,0.00,,,0.00,WeatherCatV1.15B25,2013-06-15 12:11:00,
2013-06-15 08:16:00,65.0,50.3,29.84,SSE,156,0.0,1.0,59,0.00,,,0.00,WeatherCatV1.15B25,2013-06-15 12:16:00,
2013-06-15 08:21:00,65.2,49.6,29.84,West,261,0.0,0.0,57,0.00,,,0.00,WeatherCatV1.15B25,2013-06-15 12:21:00,
2013-06-15 08:26:00,65.4,49.8,29.84,SE,143,0.0,4.0,57,0.00,,,0.00,WeatherCatV1.15B25,2013-06-15 12:26:00,
2013-06-15 08:31:00,65.7,50.5,29.84,WSW,249,0.0,0.0,58,0.00,,,0.00,WeatherCatV1.15B25,2013-06-15 12:31:00,
2013-06-15 08:36:00,66.1,49.9,29.84,WSW,244,1.0,2.0,56,0.00,,,0.00,WeatherCatV1.15B25,2013-06-15 12:36:00,
2013-06-15 08:41:00,66.4,50.7,29.84,SSW,205,0.0,0.0,57,0.00,,,0.00,WeatherCatV1.15B25,2013-06-15 12:41:00,
2013-06-15 08:46:00,66.8,50.6,29.84,SW,226,0.0,2.0,56,0.00,,,0.00,WeatherCatV1.15B25,2013-06-15 12:46:00,
2013-06-15 08:51:00,67.1,50.9,29.84,SSW,207,0.0,0.0,56,0.00,,,0.00,WeatherCatV1.15B25,2013-06-15 12:51:00,
2013-06-15 08:56:00,67.4,51.1,29.85,WSW,256,0.0,1.0,56,0.00,,,0.00,WeatherCatV1.15B25,2013-06-15 12:56:00,
2013-06-15 09:01:00,67.7,50.4,29.85,SSW,200,0.0,1.0,54,0.00,,,0.00,WeatherCatV1.15B25,2013-06-15 13:01:00,
2013-06-15 09:06:00,68.1,50.8,29.85,WSW,252,0.0,1.0,54,0.00,,,0.00,WeatherCatV1.15B25,2013-06-15 13:06:00,
2013-06-15 09:11:00,68.6,50.3,29.85,SSW,212,0.0,2.0,52,0.00,,,0.00,WeatherCatV1.15B25,2013-06-15 13:11:00,
2013-06-15 09:16:00,68.7,50.4,29.85,SSW,204,0.0,2.0,52,0.00,,,0.00,WeatherCatV1.15B25,2013-06-15 13:16:00,
2013-06-15 09:21:00,68.9,50.0,29.85,NNW,334,0.0,1.0,51,0.00,,,0.00,WeatherCatV1.15B25,2013-06-15 13:21:00,
2013-06-15 09:26:00,69.3,50.9,29.86,WSW,240,0.0,1.0,52,0.00,,,0.00,WeatherCatV1.15B25,2013-06-15 13:26:00,
2013-06-15 09:31:00,69.5,50.0,29.86,WSW,244,0.0,1.0,50,0.00,,,0.00,WeatherCatV1.15B25,2013-06-15 13:31:00,
2013-06-15 09:36:00,69.8,49.8,29.86,South,173,0.0,1.0,49,0.00,,,0.00,WeatherCatV1.15B25,2013-06-15 13:36:00,
2013-06-15 09:41:00,70.0,48.3,29.86,WSW,252,1.0,5.0,46,0.00,,,0.00,WeatherCatV1.15B25,2013-06-15 13:41:00,
2013-06-15 09:46:00,70.3,49.1,29.86,WSW,252,0.0,0.0,47,0.00,,,0.00,WeatherCatV1.15B25,2013-06-15 13:46:00,
2013-06-15 09:51:00,70.6,48.2,29.86,NW,323,0.0,3.0,45,0.00,,,0.00,WeatherCatV1.15B25,2013-06-15 13:51:00,
2013-06-15 09:56:00,71.2,48.2,29.86,WSW,251,0.0,4.0,44,0.00,,,0.00,WeatherCatV1.15B25,2013-06-15 13:56:00,
2013-06-15 10:01:00,71.5,47.2,29.86,SSW,203,0.0,4.0,42,0.00,,,0.00,WeatherCatV1.15B25,2013-06-15 14:01:00,
2013-06-15 10:06:00,71.6,46.0,29.86,West,265,0.0,3.0,40,0.00,,,0.00,WeatherCatV1.15B25,2013-06-15 14:06:00,
2013-06-15 10:11:00,72.0,45.7,29.86,West,268,0.0,3.0,39,0.00,,,0.00,WeatherCatV1.15B25,2013-06-15 14:11:00,
2013-06-15 10:16:00,71.9,44.2,29.85,ESE,117,0.0,5.0,37,0.00,,,0.00,WeatherCatV1.15B25,2013-06-15 14:16:00,
2013-06-15 10:21:00,72.4,46.7,29.85,WSW,252,0.0,0.0,40,0.00,,,0.00,WeatherCatV1.15B25,2013-06-15 14:21:00,
2013-06-15 10:26:00,73.2,45.4,29.85,North,352,1.0,6.0,37,0.00,,,0.00,WeatherCatV1.15B25,2013-06-15 14:26:00,
2013-06-15 10:31:00,73.3,45.4,29.85,West,265,1.0,3.0,37,0.00,,,0.00,WeatherCatV1.15B25,2013-06-15 14:31:00,
2013-06-15 10:36:00,73.6,46.4,29.86,SW,216,0.0,5.0,38,0.00,,,0.00,WeatherCatV1.15B25,2013-06-15 14:36:00,
2013-06-15 10:41:00,73.7,45.8,29.86,WNW,283,1.0,2.0,37,0.00,,,0.00,WeatherCatV1.15B25,2013-06-15 14:41:00,
2013-06-15 10:46:00,73.6,45.0,29.86,WNW,285,4.0,9.0,36,0.00,,,0.00,WeatherCatV1.15B25,2013-06-15 14:46:00,
2013-06-15 10:51:00,72.9,44.4,29.86,SSE,159,0.0,1.0,36,0.00,,,0.00,WeatherCatV1.15B25,2013-06-15 14:51:00,
2013-06-15 10:56:00,73.2,46.1,29.86,WNW,290,1.0,4.0,38,0.00,,,0.00,WeatherCatV1.15B25,2013-06-15 14:56:00,
2013-06-15 11:01:00,73.3,47.5,29.86,South,176,4.0,4.0,40,0.31,,,0.02,WeatherCatV1.15B25,2013-06-15 15:01:00,
2013-06-15 11:06:00,73.3,55.6,29.86,West,261,0.0,0.0,54,0.38,,,0.04,WeatherCatV1.15B25,2013-06-15 15:06:00,
2013-06-15 11:11:00,73.4,54.7,29.85,West,261,0.0,0.0,52,0.09,,,0.04,WeatherCatV1.15B25,2013-06-15 15:11:00,
2013-06-15 11:16:00,73.6,55.4,29.85,East,84,0.0,0.0,53,0.42,,,0.06,WeatherCatV1.15B25,2013-06-15 15:16:00,
2013-06-15 11:21:00,73.8,48.0,29.85,WSW,244,2.0,2.0,40,0.09,,,0.06,WeatherCatV1.15B25,2013-06-15 15:21:00,
2013-06-15 11:26:00,73.6,46.4,29.85,South,174,2.0,4.0,38,0.05,,,0.06,WeatherCatV1.15B25,2013-06-15 15:26:00,
2013-06-15 11:31:00,73.3,47.5,29.85,SSW,204,0.0,0.0,40,0.04,,,0.06,WeatherCatV1.15B25,2013-06-15 15:31:00,
2013-06-15 11:36:00,73.5,47.0,29.85,West,267,1.0,5.0,39,0.00,,,0.06,WeatherCatV1.15B25,2013-06-15 15:36:00,
2013-06-15 11:41:00,73.6,48.4,29.85,SW,227,1.0,1.0,41,0.00,,,0.06,WeatherCatV1.15B25,2013-06-15 15:41:00,
2013-06-15 11:46:00,73.4,46.2,29.85,WSW,245,1.0,2.0,38,0.00,,,0.06,WeatherCatV1.15B25,2013-06-15 15:46:00,
2013-06-15 11:51:00,73.6,47.1,29.85,NNW,333,0.0,6.0,39,0.00,,,0.06,WeatherCatV1.15B25,2013-06-15 15:51:00,
2013-06-15 11:56:00,73.9,46.0,29.85,West,263,2.0,3.0,37,0.00,,,0.06,WeatherCatV1.15B25,2013-06-15 15:56:00,
2013-06-15 12:01:00,74.2,46.9,29.85,WSW,243,0.0,4.0,38,0.00,,,0.06,WeatherCatV1.15B25,2013-06-15 16:01:00,
2013-06-15 12:07:00,74.5,48.6,29.85,SSE,147,0.0,5.0,40,0.00,,,0.06,WeatherCatV1.15B25,2013-06-15 16:07:00,
2013-06-15 12:12:00,74.7,46.0,29.85,NW,320,0.0,3.0,36,0.00,,,0.06,WeatherCatV1.15B25,2013-06-15 16:12:00,
2013-06-15 12:17:00,75.0,45.5,29.85,NW,323,0.0,1.0,35,0.00,,,0.06,WeatherCatV1.15B25,2013-06-15 16:17:00,
2013-06-15 12:22:00,75.0,46.9,29.85,WSW,245,2.0,4.0,37,0.00,,,0.06,WeatherCatV1.15B25,2013-06-15 16:22:00,
2013-06-15 12:27:00,74.8,48.2,29.85,SW,227,0.0,4.0,39,0.00,,,0.06,WeatherCatV1.15B25,2013-06-15 16:27:00,
2013-06-15 12:32:00,74.7,46.0,29.85,SSE,158,2.0,3.0,36,0.00,,,0.06,WeatherCatV1.15B25,2013-06-15 16:32:00,
2013-06-15 12:37:00,74.9,46.1,29.85,WNW,294,1.0,3.0,36,0.00,,,0.06,WeatherCatV1.15B25,2013-06-15 16:37:00,
2013-06-15 12:42:00,75.0,45.5,29.84,SW,219,3.0,5.0,35,0.00,,,0.06,WeatherCatV1.15B25,2013-06-15 16:42:00,
2013-06-15 12:47:00,74.7,44.4,29.85,WSW,249,0.0,2.0,34,0.00,,,0.06,WeatherCatV1.15B25,2013-06-15 16:47:00,
2013-06-15 12:52:00,74.6,45.1,29.84,NW,322,0.0,0.0,35,0.00,,,0.06,WeatherCatV1.15B25,2013-06-15 16:52:00,
2013-06-15 12:57:00,75.1,48.4,29.85,SW,228,2.0,2.0,39,0.00,,,0.06,WeatherCatV1.15B25,2013-06-15 16:57:00,
2013-06-15 13:02:00,75.3,45.7,29.85,SW,225,1.0,2.0,35,0.00,,,0.06,WeatherCatV1.15B25,2013-06-15 17:02:00,
2013-06-15 13:07:00,75.3,46.5,29.84,SE,138,0.0,3.0,36,0.00,,,0.06,WeatherCatV1.15B25,2013-06-15 17:07:00,
2013-06-15 13:12:00,75.5,45.9,29.85,SSW,213,2.0,3.0,35,0.00,,,0.06,WeatherCatV1.15B25,2013-06-15 17:12:00,
2013-06-15 13:17:00,75.5,45.9,29.84,South,182,3.0,6.0,35,0.00,,,0.06,WeatherCatV1.15B25,2013-06-15 17:17:00,
2013-06-15 13:22:00,75.7,47.6,29.84,West,259,0.0,0.0,37,0.00,,,0.06,WeatherCatV1.15B25,2013-06-15 17:22:00,
2013-06-15 13:27:00,76.3,46.6,29.84,WSW,258,0.0,0.0,35,0.00,,,0.06,WeatherCatV1.15B25,2013-06-15 17:27:00,
2013-06-15 13:32:00,76.7,47.0,29.84,West,272,1.0,3.0,35,0.00,,,0.06,WeatherCatV1.15B25,2013-06-15 17:32:00,
2013-06-15 13:37:00,76.9,45.6,29.84,WNW,290,0.0,6.0,33,0.00,,,0.06,WeatherCatV1.15B25,2013-06-15 17:37:00,
2013-06-15 13:42:00,76.6,46.1,29.84,SW,229,0.0,3.0,34,0.00,,,0.06,WeatherCatV1.15B25,2013-06-15 17:42:00,
2013-06-15 13:47:00,76.7,45.4,29.84,WSW,246,3.0,7.0,33,0.00,,,0.06,WeatherCatV1.15B25,2013-06-15 17:47:00,
2013-06-15 13:52:00,76.5,46.8,29.84,SSE,163,5.0,7.0,35,0.00,,,0.06,WeatherCatV1.15B25,2013-06-15 17:52:00,
2013-06-15 13:57:00,76.3,46.6,29.83,South,171,0.0,4.0,35,0.00,,,0.06,WeatherCatV1.15B25,2013-06-15 17:57:00,
2013-06-15 14:02:00,76.6,47.6,29.84,SSE,163,3.0,3.0,36,0.00,,,0.06,WeatherCatV1.15B25,2013-06-15 18:02:00,
2013-06-15 14:07:00,76.6,45.3,29.84,WSW,243,0.0,2.0,33,0.00,,,0.06,WeatherCatV1.15B25,2013-06-15 18:07:00,
2013-06-15 14:12:00,76.9,45.6,29.83,SW,232,1.0,4.0,33,0.00,,,0.06,WeatherCatV1.15B25,2013-06-15 18:12:00,
2013-06-15 14:17:00,77.0,47.2,29.83,West,272,1.0,4.0,35,0.00,,,0.06,WeatherCatV1.15B25,2013-06-15 18:17:00,
2013-06-15 14:22:00,77.4,49.1,29.83,WSW,256,0.0,4.0,37,0.00,,,0.06,WeatherCatV1.15B25,2013-06-15 18:22:00,
2013-06-15 14:27:00,77.4,46.8,29.83,WSW,244,3.0,7.0,34,0.00,,,0.06,WeatherCatV1.15B25,2013-06-15 18:27:00,
2013-06-15 14:32:00,77.4,46.8,29.83,WSW,248,3.0,4.0,34,0.00,,,0.06,WeatherCatV1.15B25,2013-06-15 18:32:00,
2013-06-15 14:37:00,77.4,48.3,29.84,WSW,240,0.0,0.0,36,0.00,,,0.06,WeatherCatV1.15B25,2013-06-15 18:37:00,
2013-06-15 14:42:00,78.1,48.2,29.84,NNW,334,0.0,2.0,35,0.00,,,0.06,WeatherCatV1.15B25,2013-06-15 18:42:00,
2013-06-15 14:47:00,78.5,46.2,29.83,WSW,251,1.0,2.0,32,0.00,,,0.06,WeatherCatV1.15B25,2013-06-15 18:47:00,
2013-06-15 14:52:00,78.2,46.7,29.83,WSW,253,1.0,2.0,33,0.00,,,0.06,WeatherCatV1.15B25,2013-06-15 18:52:00,
2013-06-15 14:57:00,78.1,45.0,29.83,West,274,0.0,6.0,31,0.00,,,0.06,WeatherCatV1.15B25,2013-06-15 18:57:00,
2013-06-15 15:02:00,78.2,45.9,29.82,WSW,241,0.0,3.0,32,0.00,,,0.06,WeatherCatV1.15B25,2013-06-15 19:02:00,
2013-06-15 15:07:00,79.0,46.6,29.82,West,262,0.0,2.0,32,0.00,,,0.06,WeatherCatV1.15B25,2013-06-15 19:07:00,
2013-06-15 15:12:00,79.1,45.8,29.82,West,267,1.0,4.0,31,0.00,,,0.06,WeatherCatV1.15B25,2013-06-15 19:12:00,
2013-06-15 15:17:00,78.8,44.7,29.82,SW,223,6.0,8.0,30,0.00,,,0.06,WeatherCatV1.15B25,2013-06-15 19:17:00,
2013-06-15 15:22:00,78.0,45.7,29.82,South,178,0.0,8.0,32,0.00,,,0.06,WeatherCatV1.15B25,2013-06-15 19:22:00,
2013-06-15 15:27:00,77.8,43.9,29.82,SW,229,3.0,8.0,30,0.00,,,0.06,WeatherCatV1.15B25,2013-06-15 19:27:00,
2013-06-15 15:32:00,77.9,43.9,29.81,WNW,285,0.0,3.0,30,0.00,,,0.06,WeatherCatV1.15B25,2013-06-15 19:32:00,
2013-06-15 15:37:00,78.8,44.7,29.81,South,175,1.0,1.0,30,0.00,,,0.06,WeatherCatV1.15B25,2013-06-15 19:37:00,
2013-06-15 15:42:00,79.2,46.8,29.81,West,271,0.0,3.0,32,0.00,,,0.06,WeatherCatV1.15B25,2013-06-15 19:42:00,
2013-06-15 15:47:00,79.3,45.2,29.81,WNW,302,0.0,2.0,30,0.00,,,0.06,WeatherCatV1.15B25,2013-06-15 19:47:00,
2013-06-15 15:52:00,79.9,44.8,29.81,South,175,0.0,3.0,29,0.00,,,0.06,WeatherCatV1.15B25,2013-06-15 19:52:00,
2013-06-15 15:57:00,79.6,44.5,29.81,WSW,254,1.0,3.0,29,0.00,,,0.06,WeatherCatV1.15B25,2013-06-15 19:57:00,
2013-06-15 16:02:00,79.5,44.4,29.81,WSW,243,1.0,3.0,29,0.00,,,0.06,WeatherCatV1.15B25,2013-06-15 20:02:00,
2013-06-15 16:07:00,79.8,44.7,29.81,West,265,0.0,1.0,29,0.00,,,0.06,WeatherCatV1.15B25,2013-06-15 20:07:00,
2013-06-15 16:12:00,80.1,45.8,29.81,SSW,211,0.0,4.0,30,0.00,,,0.06,WeatherCatV1.15B25,2013-06-15 20:12:00,
2013-06-15 16:17:00,80.3,45.1,29.81,South,180,0.0,5.0,29,0.00,,,0.06,WeatherCatV1.15B25,2013-06-15 20:17:00,
2013-06-15 16:22:00,80.1,45.0,29.81,West,267,0.0,3.0,29,0.00,,,0.06,WeatherCatV1.15B25,2013-06-15 20:22:00,
2013-06-15 16:27:00,79.9,44.8,29.81,SW,215,1.0,4.0,29,0.00,,,0.06,WeatherCatV1.15B25,2013-06-15 20:27:00,
2013-06-15 16:32:00,79.8,43.8,29.81,SW,219,1.0,2.0,28,0.00,,,0.06,WeatherCatV1.15B25,2013-06-15 20:32:00,
2013-06-15 16:37:00,79.5,44.4,29.81,WSW,242,0.0,3.0,29,0.00,,,0.06,WeatherCatV1.15B25,2013-06-15 20:37:00,
2013-06-15 16:42:00,79.4,44.3,29.81,SSW,196,0.0,2.0,29,0.00,,,0.06,WeatherCatV1.15B25,2013-06-15 20:42:00,
2013-06-15 16:47:00,79.5,43.5,29.81,SSW,204,1.0,4.0,28,0.00,,,0.06,WeatherCatV1.15B25,2013-06-15 20:47:00,
2013-06-15 16:52:00,79.5,43.5,29.81,South,170,0.0,2.0,28,0.00,,,0.06,WeatherCatV1.15B25,2013-06-15 20:52:00,
2013-06-15 16:57:00,79.3,43.3,29.81,SW,223,2.0,3.0,28,0.00,,,0.06,WeatherCatV1.15B25,2013-06-15 20:57:00,
2013-06-15 17:02:00,79.1,45.0,29.81,SW,228,0.0,2.0,30,0.00,,,0.06,WeatherCatV1.15B25,2013-06-15 21:02:00,
2013-06-15 17:07:00,79.4,46.1,29.81,WNW,282,0.0,2.0,31,0.00,,,0.06,WeatherCatV1.15B25,2013-06-15 21:07:00,
2013-06-15 17:12:00,79.4,46.1,29.81,West,260,0.0,2.0,31,0.00,,,0.06,WeatherCatV1.15B25,2013-06-15 21:12:00,
2013-06-15 17:17:00,79.4,46.9,29.80,NW,313,1.0,1.0,32,0.00,,,0.06,WeatherCatV1.15B25,2013-06-15 21:17:00,
2013-06-15 17:22:00,79.5,44.4,29.80,SW,221,0.0,1.0,29,0.00,,,0.06,WeatherCatV1.15B25,2013-06-15 21:22:00,
2013-06-15 17:27:00,79.3,45.2,29.80,South,169,0.0,10.0,30,0.00,,,0.06,WeatherCatV1.15B25,2013-06-15 21:27:00,
2013-06-15 17:32:00,78.9,46.5,29.80,WSW,256,1.0,3.0,32,0.00,,,0.06,WeatherCatV1.15B25,2013-06-15 21:32:00,
2013-06-15 17:37:00,78.4,45.2,29.80,SW,236,0.0,4.0,31,0.00,,,0.06,WeatherCatV1.15B25,2013-06-15 21:37:00,
2013-06-15 17:42:00,78.0,46.5,29.80,WSW,242,4.0,4.0,33,0.00,,,0.06,WeatherCatV1.15B25,2013-06-15 21:42:00,
2013-06-15 17:47:00,77.6,46.2,29.81,WSW,252,0.0,4.0,33,0.00,,,0.06,WeatherCatV1.15B25,2013-06-15 21:47:00,
2013-06-15 17:52:00,77.2,45.8,29.80,West,262,0.0,4.0,33,0.00,,,0.06,WeatherCatV1.15B25,2013-06-15 21:52:00,
2013-06-15 17:57:00,76.7,46.2,29.81,WSW,240,0.0,1.0,34,0.00,,,0.06,WeatherCatV1.15B25,2013-06-15 21:57:00,
2013-06-15 18:02:00,76.5,46.0,29.81,WSW,244,0.0,1.0,34,0.00,,,0.06,WeatherCatV1.15B25,2013-06-15 22:02:00,
2013-06-15 18:07:00,76.4,46.7,29.81,WSW,254,0.0,3.0,35,0.00,,,0.06,WeatherCatV1.15B25,2013-06-15 22:07:00,
2013-06-15 18:12:00,76.4,46.7,29.81,West,267,0.0,3.0,35,0.00,,,0.06,WeatherCatV1.15B25,2013-06-15 22:12:00,
2013-06-15 18:17:00,76.3,47.4,29.81,West,277,2.0,7.0,36,0.00,,,0.06,WeatherCatV1.15B25,2013-06-15 22:17:00,
2013-06-15 18:22:00,76.1,46.4,29.81,SSW,192,0.0,2.0,35,0.00,,,0.06,WeatherCatV1.15B25,2013-06-15 22:22:00,
2013-06-15 18:24:00,76.0,47.8,29.81,SSW,192,0.0,0.0,37,0.00,,,0.06,WeatherCatV1.15B25,2013-06-15 22:24:00,
2013-06-15 18:29:00,75.7,49.0,29.81,SSW,192,0.0,0.0,39,0.00,,,0.06,WeatherCatV1.15B25,2013-06-15 22:29:00,
2013-06-15 18:34:00,75.3,49.3,29.81,SSW,192,0.0,0.0,40,0.00,,,0.06,WeatherCatV1.15B25,2013-06-15 22:34:00,
2013-06-15 18:39:00,75.0,46.9,29.81,South,186,0.0,3.0,37,0.00,,,0.06,WeatherCatV1.15B25,2013-06-15 22:39:00,
2013-06-15 18:44:00,74.7,46.7,29.81,SSW,207,0.0,3.0,37,0.00,,,0.06,WeatherCatV1.15B25,2013-06-15 22:44:00,
2013-06-15 18:49:00,74.6,47.3,29.81,SSW,207,0.0,0.0,38,0.00,,,0.06,WeatherCatV1.15B25,2013-06-15 22:49:00,
2013-06-15 18:54:00,74.5,47.9,29.81,SW,223,0.0,0.0,39,0.00,,,0.06,WeatherCatV1.15B25,2013-06-15 22:54:00,
2013-06-15 18:59:00,74.4,47.8,29.81,SW,236,0.0,0.0,39,0.00,,,0.06,WeatherCatV1.15B25,2013-06-15 22:59:00,
2013-06-15 19:04:00,74.5,47.2,29.81,SW,228,0.0,0.0,38,0.00,,,0.06,WeatherCatV1.15B25,2013-06-15 23:04:00,
2013-06-15 19:09:00,74.5,46.5,29.81,SW,216,6.0,6.0,37,0.00,,,0.06,WeatherCatV1.15B25,2013-06-15 23:09:00,
2013-06-15 19:14:00,74.5,47.9,29.81,SW,232,0.0,1.0,39,0.00,,,0.06,WeatherCatV1.15B25,2013-06-15 23:14:00,
2013-06-15 19:19:00,74.3,47.7,29.82,SSW,209,0.0,0.0,39,0.00,,,0.06,WeatherCatV1.15B25,2013-06-15 23:19:00,
2013-06-15 19:24:00,74.1,49.5,29.82,SSW,209,0.0,0.0,42,0.00,,,0.06,WeatherCatV1.15B25,2013-06-15 23:24:00,
2013-06-15 19:29:00,73.8,48.6,29.82,SSW,197,1.0,2.0,41,0.00,,,0.06,WeatherCatV1.15B25,2013-06-15 23:29:00,
2013-06-15 19:34:00,73.4,48.9,29.82,SSW,197,0.0,0.0,42,0.00,,,0.06,WeatherCatV1.15B25,2013-06-15 23:34:00,
2013-06-15 19:39:00,73.1,46.7,29.82,SSW,198,0.0,3.0,39,0.00,,,0.06,WeatherCatV1.15B25,2013-06-15 23:39:00,
2013-06-15 19:44:00,72.9,47.8,29.82,WSW,254,2.0,2.0,41,0.00,,,0.06,WeatherCatV1.15B25,2013-06-15 23:44:00,
2013-06-15 19:49:00,72.7,47.0,29.82,WSW,254,0.0,0.0,40,0.00,,,0.06,WeatherCatV1.15B25,2013-06-15 23:49:00,
2013-06-15 19:54:00,72.4,47.4,29.83,WSW,254,0.0,0.0,41,0.00,,,0.06,WeatherCatV1.15B25,2013-06-15 23:54:00,
2013-06-15 19:59:00,72.1,47.7,29.83,WSW,254,0.0,0.0,42,0.00,,,0.06,WeatherCatV1.15B25,2013-06-15 23:59:00,
2013-06-15 20:04:00,71.7,48.6,29.83,WSW,254,0.0,0.0,44,0.00,,,0.06,WeatherCatV1.15B25,2013-06-16 00:04:00,
2013-06-15 20:09:00,71.2,49.9,29.83,WSW,254,0.0,0.0,47,0.00,,,0.06,WeatherCatV1.15B25,2013-06-16 00:09:00,
2013-06-15 20:14:00,70.7,49.5,29.83,WSW,254,0.0,0.0,47,0.00,,,0.06,WeatherCatV1.15B25,2013-06-16 00:14:00,
2013-06-15 20:19:00,70.1,50.0,29.83,WSW,254,0.0,0.0,49,0.00,,,0.06,WeatherCatV1.15B25,2013-06-16 00:19:00,
2013-06-15 20:24:00,69.6,50.1,29.83,WSW,254,0.0,0.0,50,0.00,,,0.06,WeatherCatV1.15B25,2013-06-16 00:24:00,
2013-06-15 20:29:00,69.2,49.8,29.83,WSW,254,0.0,0.0,50,0.00,,,0.06,WeatherCatV1.15B25,2013-06-16 00:29:00,
2013-06-15 20:34:00,68.9,50.0,29.83,WSW,254,0.0,0.0,51,0.00,,,0.06,WeatherCatV1.15B25,2013-06-16 00:34:00,
2013-06-15 20:39:00,68.5,50.2,29.84,WSW,254,0.0,0.0,52,0.00,,,0.06,WeatherCatV1.15B25,2013-06-16 00:39:00,
2013-06-15 20:44:00,68.1,50.3,29.84,WSW,254,0.0,0.0,53,0.00,,,0.06,WeatherCatV1.15B25,2013-06-16 00:44:00,
2013-06-15 20:49:00,67.7,49.9,29.84,WSW,254,0.0,0.0,53,0.00,,,0.06,WeatherCatV1.15B25,2013-06-16 00:49:00,
2013-06-15 20:54:00,67.4,51.1,29.84,WSW,254,0.0,0.0,56,0.00,,,0.06,WeatherCatV1.15B25,2013-06-16 00:54:00,
2013-06-15 20:59:00,66.9,51.6,29.84,WSW,254,0.0,0.0,58,0.00,,,0.06,WeatherCatV1.15B25,2013-06-16 00:59:00,
2013-06-15 21:04:00,66.4,51.6,29.84,WSW,254,0.0,0.0,59,0.00,,,0.06,WeatherCatV1.15B25,2013-06-16 01:04:00,
2013-06-15 21:09:00,66.0,52.2,29.85,WSW,254,0.0,0.0,61,0.00,,,0.06,WeatherCatV1.15B25,2013-06-16 01:09:00,
2013-06-15 21:14:00,65.6,53.1,29.85,WSW,254,0.0,0.0,64,0.00,,,0.06,WeatherCatV1.15B25,2013-06-16 01:14:00,
2013-06-15 21:19:00,65.2,53.1,29.85,WSW,254,0.0,0.0,65,0.00,,,0.06,WeatherCatV1.15B25,2013-06-16 01:19:00,
2013-06-15 21:24:00,64.8,53.6,29.85,WSW,254,0.0,0.0,67,0.00,,,0.06,WeatherCatV1.15B25,2013-06-16 01:24:00,
2013-06-15 21:29:00,64.3,53.5,29.85,WSW,254,0.0,0.0,68,0.00,,,0.06,WeatherCatV1.15B25,2013-06-16 01:29:00,
2013-06-15 21:34:00,63.9,53.1,29.86,WSW,254,0.0,0.0,68,0.00,,,0.06,WeatherCatV1.15B25,2013-06-16 01:34:00,
2013-06-15 21:39:00,63.5,53.1,29.86,WSW,254,0.0,0.0,69,0.00,,,0.06,WeatherCatV1.15B25,2013-06-16 01:39:00,
2013-06-15 21:44:00,63.2,52.5,29.86,WSW,254,0.0,0.0,68,0.00,,,0.06,WeatherCatV1.15B25,2013-06-16 01:44:00,
2013-06-15 21:49:00,62.9,53.0,29.86,WSW,254,0.0,0.0,70,0.00,,,0.06,WeatherCatV1.15B25,2013-06-16 01:49:00,
2013-06-15 21:54:00,62.6,52.7,29.86,WSW,254,0.0,0.0,70,0.00,,,0.06,WeatherCatV1.15B25,2013-06-16 01:54:00,
2013-06-15 21:59:00,62.3,52.0,29.86,WSW,254,0.0,0.0,69,0.00,,,0.06,WeatherCatV1.15B25,2013-06-16 01:59:00,
2013-06-15 22:04:00,62.1,52.6,29.86,WSW,254,0.0,0.0,71,0.00,,,0.06,WeatherCatV1.15B25,2013-06-16 02:04:00,
2013-06-15 22:09:00,61.8,51.9,29.86,WSW,254,0.0,0.0,70,0.00,,,0.06,WeatherCatV1.15B25,2013-06-16 02:09:00,
2013-06-15 22:14:00,61.6,52.9,29.86,WSW,254,0.0,0.0,73,0.00,,,0.06,WeatherCatV1.15B25,2013-06-16 02:14:00,
2013-06-15 22:19:00,61.3,51.8,29.86,WSW,254,0.0,0.0,71,0.00,,,0.06,WeatherCatV1.15B25,2013-06-16 02:19:00,
2013-06-15 22:24:00,61.1,52.0,29.86,WSW,254,0.0,0.0,72,0.00,,,0.06,WeatherCatV1.15B25,2013-06-16 02:24:00,
2013-06-15 22:29:00,61.0,51.9,29.86,WSW,254,0.0,0.0,72,0.00,,,0.06,WeatherCatV1.15B25,2013-06-16 02:29:00,
2013-06-15 22:34:00,60.9,51.8,29.86,WSW,254,0.0,0.0,72,0.00,,,0.06,WeatherCatV1.15B25,2013-06-16 02:34:00,
2013-06-15 22:39:00,60.6,51.1,29.86,WSW,254,0.0,0.0,71,0.00,,,0.06,WeatherCatV1.15B25,2013-06-16 02:39:00,
2013-06-15 22:44:00,60.4,51.3,29.86,WSW,254,0.0,0.0,72,0.00,,,0.06,WeatherCatV1.15B25,2013-06-16 02:44:00,
2013-06-15 22:49:00,60.4,51.7,29.87,WSW,254,0.0,0.0,73,0.00,,,0.06,WeatherCatV1.15B25,2013-06-16 02:49:00,
2013-06-15 22:54:00,60.3,51.6,29.87,WSW,254,0.0,0.0,73,0.00,,,0.06,WeatherCatV1.15B25,2013-06-16 02:54:00,
2013-06-15 22:59:00,60.2,51.1,29.87,WSW,254,0.0,0.0,72,0.00,,,0.06,WeatherCatV1.15B25,2013-06-16 02:59:00,
2013-06-15 23:04:00,60.1,51.4,29.87,WSW,254,0.0,0.0,73,0.00,,,0.06,WeatherCatV1.15B25,2013-06-16 03:04:00,
2013-06-15 23:09:00,60.0,51.7,29.87,WSW,254,0.0,0.0,74,0.00,,,0.06,WeatherCatV1.15B25,2013-06-16 03:09:00,
2013-06-15 23:14:00,59.8,51.1,29.87,WSW,254,0.0,0.0,73,0.00,,,0.06,WeatherCatV1.15B25,2013-06-16 03:14:00,
2013-06-15 23:19:00,59.7,51.4,29.87,WSW,254,0.0,0.0,74,0.00,,,0.06,WeatherCatV1.15B25,2013-06-16 03:19:00,
2013-06-15 23:24:00,59.6,51.3,29.87,WSW,254,0.0,0.0,74,0.00,,,0.06,WeatherCatV1.15B25,2013-06-16 03:24:00,
2013-06-15 23:29:00,59.6,51.3,29.87,WSW,254,0.0,0.0,74,0.00,,,0.06,WeatherCatV1.15B25,2013-06-16 03:29:00,
2013-06-15 23:34:00,59.6,51.3,29.88,WSW,254,0.0,0.0,74,0.00,,,0.06,WeatherCatV1.15B25,2013-06-16 03:34:00,
2013-06-15 23:39:00,59.5,50.8,29.88,WSW,254,0.0,0.0,73,0.00,,,0.06,WeatherCatV1.15B25,2013-06-16 03:39:00,
2013-06-15 23:44:00,59.5,50.8,29.88,WSW,254,0.0,0.0,73,0.00,,,0.06,WeatherCatV1.15B25,2013-06-16 03:44:00,
2013-06-15 23:49:00,59.5,50.8,29.88,WSW,254,0.0,0.0,73,0.00,,,0.06,WeatherCatV1.15B25,2013-06-16 03:49:00,
2013-06-15 23:54:00,59.4,50.4,29.88,WSW,254,0.0,0.0,72,0.00,,,0.06,WeatherCatV1.15B25,2013-06-16 03:54:00,
2013-06-15 23:59:00,59.4,50.4,29.88,WSW,254,0.0,0.0,72,0.00,,,0.00,WeatherCatV1.15B25,2013-06-16 03:59:00,